Regional Weather Roundup
Issued by NWS Pendleton, OR

Home | Current Version | Previous Version | Text Only | Print | Product List | Glossary On
Versions: 1 2 3 4 5 6 7 8 9 10 11 12 13 14 15 16 17 18 19 20 21 22 23 24 25 26 27 28 29 30 31 32 33 34 35 36 37 38 39 40 41 42 43 44 45 46 47 48 49 50
000
ASUS46 KPDT 312025
RWRPDT
PENDLETON REGIONAL WEATHER ROUNDUP
NATIONAL WEATHER SERVICE PENDLETON OREGON
100 PM PDT THU JUL 31 2014

NOTE: FAIR INDICATES FEW OR NO CLOUDS BELOW 12,000 FEET WITH NO
SIGNIFICANT WEATHER AND/OR OBSTRUCTIONS TO VISIBILITY.

# INDICATES UNOFFICIAL STATION AND DATA

WAZ520-312110-
EAST SLOPES OF WASHINGTON CASCADES

CITY            SKY/WX      TMP DP  RH  WIND    PRES   REMARKS
#BUMPING DAM    N/A         86  N/A N/A S1      N/A
#CLE ELUM HS    N/A         90  39  17  W5      29.99F HX 86
#CLE ELUM LAKE  N/A         90  41  18  SE3     29.92F HX 86
#CLIFFDEL 2NW   N/A         94  29  10  S1      N/A    HX 89
#GLENWOOD       N/A         88  50  27  CALM    29.95F
#MANASTASH CYN  N/A         89  44  21  NW2     30.07F
#NELSON 3SW     N/A         87  47  25  CALM    30.14S
#NILE           N/A         93  28  10  S2      29.22F HX 88
#RONALD 2NW     N/A         88  44  22  SW2     29.96F
#TROUT LAKE 1NE N/A         88  48  25  E1      29.93F
$$

WAZ521-312110-
SIMCOE HIGHLANDS

CITY            SKY/WX      TMP DP  RH  WIND    PRES   REMARKS
#BICKLETON HS   N/A         84  30  14  SW6     30.15S
#CENTERVILLE 1SWN/A         92  51  25  CALM    29.89F HX 89
#GOLDENDALE 1NE N/A         93  33  12  E6      N/A    HX 89
#GOLDENDALE 1S  N/A         94  49  22  S1      30.00F HX 91
#GOLDENDALE 5WNWN/A         92  48  22  S2      29.91F HX 89
#GOODNOE HILLS  N/A         95  50  22  E3      29.94F HX 92
#LYLE 6NE       N/A         83  57  41  SW3     29.91F
$$

WAZ026-312110-
KITTITAS VALLEY

CITY            SKY/WX      TMP DP  RH  WIND    PRES   REMARKS
ELLENSBURG AP   SUNNY       96  43  16  E5      30.03F HX 92
#ELLENSBURG CWU N/A         94  48  21  N1      29.88F HX 91
#ELLENSBURG 3NE N/A         88  54  31  CALM    30.03F
#KITTITAS 3S    N/A         85  56  37  CALM    29.92F
#THORP 6N       N/A         90  33  13  E6      29.96F HX 86
$$

WAZ027-312110-
YAKIMA VALLEY

CITY            SKY/WX      TMP DP  RH  WIND    PRES   REMARKS
YAKIMA AIRPORT  PTCLDY      94  39  15  CALM    30.00F HX 90
YAKIMA-VAGABOND PTCLDY      95  35  12  S9      30.02F HX 90
#COWICHE 1N     N/A         89  46  23  SE1     30.14F
#DONALD 2NE     N/A         91  49  24  E1      30.32F HX 88
#GRANDVIEW      N/A         89  51  27  CALM    29.95F
#MABTON         N/A         90  59  35  E1      29.97F HX 89
#MOXEE 2E       N/A         90  18   7  S7      29.90F HX 86
#NACHES 2SW     N/A         92  50  24  S1      30.05F HX 89
#OUTLOOK DOT    N/A         N/A N/A N/A E6      N/A
#SELAH 8E       N/A         94  33  12  SW7     N/A    HX 89
#TERRACE HTS    N/A         92  46  21  S3      29.89F HX 88
#TOPPENISH      N/A         87  54  32  E2      29.86F
#WAPATO 4NE     N/A         91  49  24  E1      30.32F HX 88
#W YAKIMA       N/A         92  40  16  S3      29.92F HX 88
#WHITE SWAN 5E  N/A         84  58  41  N2      29.95S
#WILEY CITY 3W  N/A         92  32  12  CALM    30.01F HX 88
$$

WAZ028-312110-
LOWER COLUMBIA BASIN...WASHINGTON

CITY            SKY/WX      TMP DP  RH  WIND    PRES   REMARKS
HANFORD         MOCLDY      97  34  11  SE7     29.97S HX 92
PASCO           PTCLDY      94  50  23  VRB6    29.97F HX 91
PROSSER AWOS    N/A         90  57  33  SW1     30.00F HX 89
#BASIN CITY 5SW N/A         90  57  33  CALM    29.98F HX 89
#BENTON CITY    N/A         91  52  27  W2      29.84F HX 88
#CONNELL 5N     N/A         93  51  24  W5      29.93S HX 90
#CONNELL 5NW    N/A         92  56  30  NW1     29.90S HX 90
#ELTOPIA 6NW    N/A         89  63  42  SE1     28.97F
#KENNEWICK 3S   N/A         92  60  34  CALM    29.93F HX 92
#PASCO-BROADMOORN/A         98  49  19  SW1     29.83F HX 95
#PATERSON       N/A         90  50  26  N3      29.92F HX 87
#PROSSER        N/A         92  42  18  SE1     29.93F HX 88
#SAGEMOOR 2W    N/A         91  58  33  CALM    29.81F HX 90
#TOUCHET 2S     N/A         94  60  32  N2      29.92F HX 94
#WEST PASCO     N/A         96  59  29  W1      29.95F HX 95
$$

WAZ029-312110-
FOOTHILLS OF THE BLUES...WASHINGTON

CITY            SKY/WX      TMP DP  RH  WIND    PRES   REMARKS
WALLA WALLA AP  PTCLDY      87  52  30  SE8     30.04S
#COLLEGE PLACE  N/A         98  54  23  E2      29.99S HX 96
#DAYTON SCHOOL  N/A         88  47  24  E5      30.02R
#LOWDEN 2SE     N/A         94  57  29  CALM    29.94F HX 93
#PLEASANT VIEW 1N/A         94  41  16  S8      29.95S HX 90
#PRESCOTT       N/A         86  57  37  CALM    29.93R
#SUDBURY        N/A         94  N/A N/A CALM    N/A
#WHITMAN COLLEGEN/A         86  57  37  E3      30.00R
#WAITSBURG 8N   N/A         88  35  15  S7      29.88S
#WALLA WALLA 5E N/A         89  53  29  CALM    N/A
#WALLA WALLA U  N/A         89  56  33  E1      29.93F
#WHITMAN MISSIONN/A         91  58  33  CALM    29.96S HX 90
$$

WAZ030-312110-
BLUE MOUNTAINS...WASHINGTON

CITY            SKY/WX      TMP DP  RH  WIND    PRES   REMARKS
$$

ORZ009-041-WAZ024-312110-
COLUMBIA RIVER GORGE

CITY            SKY/WX      TMP DP  RH  WIND    PRES   REMARKS
HOOD RIVER AP   SUNNY       90  59  35  N6      29.99F HX 89
THE DALLES AP   PTCLDY      91  56  31  N10     29.95F HX 89
#ARLINGTON AIRPON/A         90  50  26  N2      N/A    HX 87
#ARLINGTON HS   N/A         90  51  26  CALM    29.83F HX 87
#CELILO DOT     N/A         93  62  36  CALM    N/A    HX 94
#MOSIER 1S      N/A         86  49  28  NW8     30.03F
#MURDOCK        N/A         88  61  41  W8      29.94F
#RUFUS DOT      N/A         N/A N/A N/A SW7     N/A

$$

ORZ510-312110-
NORTH CENTRAL OREGON

CITY            SKY/WX      TMP DP  RH  WIND    PRES   REMARKS
#CHENOWITH 1W   N/A         87  46  24  W6      N/A
#COW CYN RST AREN/A         90  39  17  NE8     N/A    HX 86
#DUFUR 9E       N/A         89  49  25  N9      29.94F
#GRASS VALLEY 1SN/A         93  47  21  SE2     29.93F HX 89
#KENT DOT       N/A         94  44  18  E10     N/A    HX 90
#MAUPIN SCHOOL  N/A         97  38  13  N5      29.98F HX 92
#MORO SCHOOL    N/A         92  52  26  NE7     30.04F HX 89
#SHANIKO 5WSW   N/A         89  40  18  SE8     N/A
#SHANIKO 4NW    N/A         92  36  14  E9      30.15F HX 88
#TYGH VALLEY 2NEN/A         95  46  19  S2      29.90F HX 91
#WAPANITIA AIRPON/A         95  38  14  SE5     29.91F HX 91
#WASCO DOT      N/A         96  57  27  CALM    N/A    HX 95
#WASCO 5NE      N/A         92  50  24  N3      29.92F HX 89
$$

ORZ511-312110-
CENTRAL OREGON

CITY            SKY/WX      TMP DP  RH  WIND    PRES   REMARKS
BEND AIRPORT    PTCLDY      91  39  16  N8      30.11F HX 87
MADRAS AIRPORT  SUNNY       91  37  15  N3      30.08F HX 87
REDMOND AIRPORT SUNNY       92  37  15  NW9     30.08F HX 88
#BEND 6E        N/A         90  36  15  CALM    29.77F HX 86
#BEND 1SW       N/A         88  42  20  S1      N/A
#BEND-AWBREY    N/A         91  46  21  W9      29.87F HX 87
#BEND-KIM LN    N/A         92  50  24  N1      30.09F HX 89
#CROOKED RVR RANN/A         92  47  21  E3      29.88F HX 88
#CULVER         N/A         91  44  20  N1      30.03F HX 87
#LAKE BILLY CHINN/A         90  10   5  W3      30.05F HX 86
#POWELL BUTTE 3EN/A         87  52  30  W5      N/A
#POWELL BUTTE   N/A         95  51  23  N8      29.74F HX 92
#PRINEVILLE 3N  N/A         90  51  26  CALM    29.83F HX 87


ORZ509-312110-
EAST SLOPES OF OREGON CASCADES

CITY            SKY/WX      TMP DP  RH  WIND    PRES   REMARKS
#BLUE BOX PASS  N/A         91  30  11  S2      N/A    HX 87
#BLACK BUTTE RNCN/A         92  45  20  CALM    29.90F HX 88
#CAMP SHERMAN   N/A         96  46  18  CALM    29.91F HX 92
#LA PINE DOT    N/A         91  39  16  W6      N/A    HX 87
#LA PINE 4NW    N/A         87  48  26  CALM    29.93F
#LAVA BUTTE DOT N/A         89  51  27  CALM    N/A
#SISTERS AIRPOR N/A         88  55  33  N5      30.09F
#SISTERS ODOT   N/A         88  N/A N/A NW1     N/A
#SISTERS 3N     N/A         86  50  29  E3      N/A
#SUNRIVER       N/A         91  43  19  S2      29.78F HX 87
#SUNRIVER AP    N/A         90  45  21  N2      29.85F HX 86
#SUTTLE LK DOT  N/A         86  49  28  E7      N/A
#TUMALO 3W      N/A         89  43  20  SE1     29.78F
#WANOGA BUTTE D N/A         80  37  21  NW2     N/A

$$

ORZ044-312110-
LOWER COLUMBIA BASIN...OREGON

CITY            SKY/WX      TMP DP  RH  WIND    PRES   REMARKS
HERMISTON       MOCLDY      92  50  24  N6      29.97F HX 89
#BOARDMAN SCHOOLN/A         91  52  27  N2      29.93F HX 88
#BOARDMAN 3W    N/A         93  60  33  NE3     29.68S HX 93
#BOARDMAN 8SW   N/A         91  53  28  NW3     29.93F HX 89
#IONE SCHOOL    N/A         92  49  23  N2      29.98F HX 89
#IRRIGON 4NW    N/A         92  50  24  NW3     N/A    HX 89
#UMATILLA SCHOOLN/A         96  62  33  CALM    29.98F HX 97
#UMATILLA       N/A         91  48  23  CALM    29.94F HX 88
$$

ORZ507-312110-
NORTHERN FOOTHILLS OF THE BLUES

CITY            SKY/WX      TMP DP  RH  WIND    PRES   REMARKS
PENDLETON AIRPT PTCLDY      89  45  22  SE7     30.03S
#ADAMS 3WNW     N/A         87  51  29  CALM    29.92F
#ATHENA         N/A         87  47  25  CALM    29.95F
#HELIX SCHOOL   N/A         89  44  21  CALM    29.93F
#HELIX 3N       N/A         90  43  20  NW2     30.02F HX 86
#HOLDMAN 5SE    N/A         91  48  23  S1      30.02F HX 88
#HOLDMAN 6E     N/A         91  44  20  N2      29.75S HX 87
#M-F FERNDALE   N/A         89  60  38  CALM    30.00F
#M-F GROVE ELEM N/A         86  53  32  CALM    30.01S
#M-FREEWATER 5SEN/A         79  63  58  NE2     30.03S
#PDT AQUATIC CTRN/A         88  51  28  E3      29.95S
#PENDLETON DNTN N/A         86  51  30  S5      29.95F
#PDT SUNRIDGE   N/A         89  51  27  SE1     30.02S
#PENDLETON 7NW  N/A         88  55  33  CALM    28.30S
#PILOT ROCK     N/A         86  48  27  CALM    30.06S
#TUTUILLA       N/A         89  56  33  CALM    29.89F
#UMAPINE 2E     N/A         89  63  42  E3      29.96F
#WESTON SCHOOL  N/A         86  43  22  CALM    30.03F

$$

ORZ508-312110-
SOUTHERN FOOTHILLS OF THE BLUES

CITY            SKY/WX      TMP DP  RH  WIND    PRES   REMARKS
#AJAX           N/A         91  40  17  NE7     29.98S HX 87
#CONDON SCHOOL  N/A         85  43  23  N7      30.06S
#CONDON 5W      N/A         86  40  20  NE9     30.10F
#FOSSIL SCHOOL  N/A         91  44  20  E2      30.05S HX 87
#HEPPNER 4NE    N/A         84  46  27  E9      29.93R
#LEXINGTON 2SE  N/A         92  48  22  E6      30.01R HX 89
#MIKKALO        N/A         88  43  21  N1      30.05F
#OLEX 4N        N/A         87  48  26  CALM    29.99F
#RUGGS 5NE      N/A         84  44  25  E13     30.30R
#RUGGS 2SW      N/A         87  45  23  SE9     29.96R

$$

ORZ502-503-312110-
BLUE MOUNTAINS

CITY            SKY/WX      TMP DP  RH  WIND    PRES   REMARKS
MEACHAM         CLOUDY      81  46  29  CALM    30.18F
#BATTLE MTN DOT N/A         81  59  47  CALM    N/A
#HARDMAN 10S    N/A         80  46  30  N5      30.24F
#HEPPNER 15SE   N/A         71  55  57  CALM    30.13F
#LADD CYN SMT   N/A         83  44  25  W6      N/A
#LADD CREEK ODOTN/A         86  56  36  CALM    N/A
#LONG CREEK HS  N/A         81  47  30  CALM    30.11F
#N POWDER DOT   N/A         78  55  45  N2      N/A
#PIKES PEAK     N/A         76  49  39  SW9     27.99S
#TOLLGATE 9W    N/A         79  52  39  W6      N/A
#TROY SCHOOL    N/A         99  49  19  CALM    29.71F HX 96
#UKIAH          N/A         84  50  31  CALM    29.98F
#WESTON 4E      N/A         79  50  36  CALM    29.88S
$$

ORZ505-312110-
JOHN DAY BASIN

CITY            SKY/WX      TMP DP  RH  WIND    PRES   REMARKS
JOHN DAY        THUNDER     87  44  22  E7      30.16F
#JOHN DAY KJDY  N/A         95  65  37  CALM    30.23F HX 97
#MONUMENT HS    N/A         81  55  41  N1      29.83F
#MT. VERNON 5SE N/A         83  46  27  CALM    30.13F
#WINLOCK        N/A         82  48  31  CALM    30.20S
$$

ORZ506-312110-
OCHOCO AND JOHN DAY HIGHLANDS

CITY            SKY/WX      TMP DP  RH  WIND    PRES   REMARKS
#BUCK CREEK DOT N/A         87  48  26  SE7     N/A
#HORSE RIDGE DO N/A         87  37  17  NE7     N/A
#KEYES SMT DOT  N/A         82  42  24  SE8     N/A
#PINE MTN OBS   N/A         77  37  24  E6      N/A
#PRAIRIE CITY   N/A         78  51  39  E15G24  29.98R
#SENECA 9NW     N/A         79  42  27  CALM    29.93F
$$

ORZ049-312110-
GRANDE RONDE VALLEY

CITY            SKY/WX      TMP DP  RH  WIND    PRES   REMARKS
LA GRANDE       MOCLDY      90  46  22  NW7     30.09F HX 87
#COVE           N/A         87  53  31  CALM    30.02R
#COVE SCHOOL    N/A         89  47  24  CALM    30.08R
#COVE 6NW       N/A         87  52  30  SW1     29.97F
#ELGIN 3N       N/A         89  44  21  N6      29.81S
#ELGIN 1E       N/A         88  52  29  CALM    N/A
#IMBLER SCHOOL  N/A         86  52  31  CALM    30.04F
#ISLAND CITY 4N N/A         85  50  30  SE3     29.86F
#LADD CYN DOT   N/A         88  54  31  NE3     N/A
#UNION 1S       N/A         85  50  30  N3      29.84S
$$

ORZ050-312110-
WALLOWA COUNTY

CITY            SKY/WX      TMP DP  RH  WIND    PRES   REMARKS
JOSEPH AIRPORT  MOCLDY      79  45  30  SE5     30.19R
#ENTERPRISE AP  N/A         78  42  28  E12     30.09R
#ENTERPRISE HS  N/A         78  50  38  E9      30.14R
#IMNAHA SCHOOL  N/A         96  28   9  N5      29.90  HX 91
#IMNAHA 10S     N/A         92  42  18  VRB3    30.05S HX 88
#JOSEPH 3N      N/A         76  46  34  SE12G25 30.18R
#JOSEPH 3W      N/A         79  34  20  SW3     30.06R
#LOSTINE        N/A         90  50  26  CALM    29.70F HX 87
#MT HOWARD 8000 N/A         61  32  33  SE15G32 30.50S
#PROMISE 1S     N/A         88  48  25  W3      30.01S
#SHEEP RDG 7000 N/A         69  38  32  CALM    29.89F
#WALLOWA SCHOOL N/A         92  46  21  CALM    30.75F HX 88



$$



USA.gov is the U.S. government's official web portal to all federal, state and local government web resources and services.